This demonstration page uses our WeatherBlox Daily Observations layout. Learn more.

Left ArrowRight Arrow

38.88101, -77.10428

Hourly Observations for December 11, 2020

Temp ( °F °C ) Dew Point ( °F °C ) Humidity (%) Winds ( mph kmh ) Pressure ( in mb ) Visibility ( mi km ) Precip ( " mm )
12:52 am 00:52 Clear with Mist and Fog 38 3.3 35 1.7 89 89 Calm 30.22 1023 3 5 0.00 0.00
1:52 am 01:52 Clear 37 2.8 35 1.7 93 93 Calm 30.21 1023 7 11 0.00 0.00
2:52 am 02:52 Clear 36 2.2 33 0.6 89 89 SW 5 7 30.20 1023 8 13 0.00 0.00
3:52 am 03:52 Clear 37 2.8 35 1.7 93 93 SSW 6 9 30.20 1023 8 13 0.00 0.00
4:52 am 04:52 Clear 38 3.3 35 1.7 89 89 S 6 9 30.19 1022 9 14 0.00 0.00
5:52 am 05:52 Clear 38 3.3 35 1.7 89 89 SSW 3 6 30.19 1023 9 14 0.00 0.00
6:52 am 06:52 Mostly Clear 38 3.3 35 1.7 89 89 SSW 5 7 30.20 1023 9 14 0.00 0.00
7:52 am 07:52 Partly Cloudy with Mist and Fog 39 3.9 37 2.8 93 93 S 7 11 30.20 1023 6 10 0.00 0.00
8:52 am 08:52 Mostly Sunny 45 7.2 39 3.9 80 80 SSW 13 20 30.22 1023 8 13 0.00 0.00
9:52 am 09:52 Sunny 48 8.9 41 5 77 77 SSW 8 13 30.22 1024 10 16 0.00 0.00
10:52 am 10:52 Mostly Sunny 52 11.1 41 5 66 66 SSW 7 11 30.21 1023 10 16 0.00 0.00
11:52 am 11:52 Mostly Sunny 56 13.3 41 5 57 57 S 10 17 30.17 1022 10 16 0.00 0.00
12:52 pm 12:52 Partly Cloudy 59 15 40 4.4 49 49 SSW 14 22 30.14 1021 10 16 0.00 0.00
1:52 pm 13:52 Mostly Cloudy 61 16.1 41 5 48 48 S 9 15 30.11 1020 10 16 0.00 0.00
2:52 pm 14:52 Mostly Cloudy 60 15.6 40 4.4 47 47 S 8 13 30.11 1020 10 16 0.00 0.00
3:52 pm 15:52 Mostly Cloudy 58 14.4 40 4.4 51 51 S 10 17 30.11 1020 10 16 0.00 0.00
4:52 pm 16:52 Mostly Cloudy 54 12.2 39 3.9 57 57 S 9 15 30.11 1020 10 16 0.00 0.00
5:52 pm 17:52 Mostly Cloudy 53 11.7 39 3.9 59 59 S 9 15 30.11 1020 10 16 0.00 0.00
6:52 pm 18:52 Mostly Cloudy 54 12.2 40 4.4 59 59 WSW 3 6 30.14 1021 10 16 0.00 0.00
7:52 pm 19:52 Mostly Cloudy 48 8.9 40 4.4 74 74 Calm 30.14 1021 10 16 0.00 0.00
8:52 pm 20:52 Mostly Cloudy 49 9.4 41 5 74 74 WSW 5 7 30.13 1020 10 16 0.00 0.00
9:52 pm 21:52 Mostly Cloudy 46 7.8 40 4.4 79 79 Calm 30.13 1020 10 16 0.00 0.00
10:52 pm 22:52 Mostly Cloudy 43 6.1 39 3.9 86 86 Calm 30.12 1020 9 14 0.00 0.00
11:52 pm 23:52 Partly Cloudy 45 7.2 41 5 86 86 Calm 30.11 1020 10 16 0.00 0.00

Powered by AerisWeather